Home > Weather > Nanning > Past weeks

Flag for China Past Weather in Nanning, Guangxi, China — Yesterday and Last 2 Weeks

Now
81 °F

Broken clouds.


Feels Like: 86 °F
Forecast: 78 / 91 °F
Wind: 3 mph from East

Location: Nanning Airport

Current Time: Jun 30, 2016 at 7:49:14 AM

Latest Report: Jun 30, 2016 at 7:00 AM


Visibility: N/A

Pressure: 29.74 "Hg

Humidity: 84%

Dew Point: 75 °F

Location of NanningLocation

Past Weather in Nanning — Graph

°F

Nanning Temperature Yesterday

Maximum temperature yesterday: 91 °F (at 2:00 PM)
Minimum temperature yesterday: 81 °F (at 4:00 AM)
Average temperature yesterday: 85 °F

High & Low Weather Summary for the Past Weeks

 TemperatureHumidityPressure
High95 °F (Jun 15, 1:00 PM)94% (Jun 16, 1:00 AM)29.83 "Hg (Jun 16, 1:00 AM)
Low72 °F (Jun 17, 6:00 AM)47% (Jun 26, 3:00 PM)29.50 "Hg (Jun 15, 4:00 PM)
Average84 °F76%29.74 "Hg
* Reported Jun 15 6:00 AM — Jun 30 6:00 AM, Nanning, Weather by CustomWeather, © 2016

Note: Actual official high and low records may vary slightly from our data, if they occured in-between our weather recording intervals... More about our weather records

Advertising

Nanning Weather History for the Previous 24 Hours

Scroll right to see more
 ConditionsComfort  
Time TempWeatherWind HumidityBarometerVisibility
6:00 AM
Thu, Jun 30
81 °FPassing clouds.6 mph89%29.74 "HgN/A
5:00 AM81 °FPassing clouds.3 mph89%29.74 "HgN/A
4:00 AM81 °FPassing clouds.3 mph89%29.74 "HgN/A
3:00 AM81 °FPassing clouds.3 mph89%29.74 "HgN/A
2:00 AM81 °FPassing clouds.No wind89%29.77 "HgN/A
1:00 AM81 °FPassing clouds.1 mph89%29.77 "HgN/A
12:00 AM81 °FPassing clouds.1 mph89%29.80 "HgN/A
11:00 PM
Wed, Jun 29
81 °FPassing clouds.1 mph89%29.77 "HgN/A
10:00 PM81 °FClear.3 mph89%29.74 "Hg10 mi
9:00 PM82 °FClear.1 mph79%29.74 "Hg10 mi
8:00 PM82 °FPassing clouds.3 mph79%29.74 "HgN/A
7:00 PM86 °FPassing clouds.8 mph75%29.74 "HgN/A
6:00 PM88 °FScattered clouds.15 mph66%29.71 "HgN/A
5:00 PM91 °FPassing clouds.8 mph59%29.71 "HgN/A
4:00 PM91 °FScattered clouds.10 mph59%29.71 "HgN/A
3:00 PM91 °FScattered clouds.8 mph56%29.71 "HgN/A
2:00 PM91 °FScattered clouds.6 mph59%29.74 "HgN/A
1:00 PM90 °FScattered clouds.6 mph63%29.77 "HgN/A
12:00 PM90 °FScattered clouds.3 mph63%29.77 "HgN/A
11:00 AM86 °FScattered clouds.6 mph75%29.80 "HgN/A
10:00 AM84 °FScattered clouds.3 mph74%29.80 "HgN/A
9:00 AM82 °FScattered clouds.3 mph84%29.80 "HgN/A
8:00 AM82 °FScattered clouds.3 mph79%29.80 "HgN/A
7:00 AM81 °FScattered clouds.3 mph84%29.80 "HgN/A
Weather by CustomWeather, © 2016

See weather overviewHow to use our weather pages